Location: ????
(55.5675°N, 37.6272°E)
Time: 20:28:31
(UTC+00:00)

Cosmos 2322 - Pass Details

Date: 14 April 2026
Orbit: 839 x 854 km, 71.0° (Epoch: 11 May)

Event Time Altitude Azimuth Distance (km) Brightness Sun altitude
Rises 18:22:58 0° 216° (SW) 3,410 6.8 -14.2°
Reaches altitude 10° 18:25:25 10° 217° (SW) 2,480 6.1 -14.4°
Maximum altitude 18:31:08 80° 305° (NW) 873 3.8 -15.0°
Drops below altitude 10° 18:36:54 10° 33° (NNE) 2,498 6.3 -15.6°
Sets 18:39:22 0° 35° (NE) 3,437 7.0 -15.8°
